Time,TemperatureF,DewpointF,PressureIn,WindDirection,WindDirectionDegrees,WindSpeedMPH,WindSpeedGustMPH,Humidity,HourlyPrecipIn,Conditions,Clouds,dailyrainin,SoftwareType,DateUTC
2013-03-19 00:03:00,22.1,18.3,29.51,NNW,344,4.0,4.0,85,0.00,,---,0.00,VWS V13.01,2013-03-19 05:03:00,
2013-03-19 00:08:00,21.7,17.9,29.51,WSW,257,2.0,4.0,85,0.00,,---,0.00,VWS V13.01,2013-03-19 05:08:00,
2013-03-19 00:13:00,21.3,17.5,29.51,West,277,1.0,10.0,85,0.00,,---,0.00,VWS V13.01,2013-03-19 05:13:00,
2013-03-19 00:18:00,20.9,17.1,29.51,West,269,1.0,11.0,85,0.00,,---,0.00,VWS V13.01,2013-03-19 05:18:00,
2013-03-19 00:23:00,20.6,16.8,29.51,West,273,4.0,11.0,85,0.00,,---,0.00,VWS V13.01,2013-03-19 05:23:00,
2013-03-19 00:28:00,20.2,16.4,29.51,SW,217,1.0,11.0,85,0.00,,---,0.00,VWS V13.01,2013-03-19 05:28:00,
2013-03-19 00:33:00,20.0,16.5,29.51,West,269,0.0,5.0,86,0.00,,---,0.00,VWS V13.01,2013-03-19 05:33:00,
2013-03-19 00:38:00,19.8,16.3,29.51,SW,230,4.0,5.0,86,0.00,,---,0.00,VWS V13.01,2013-03-19 05:38:00,
2013-03-19 00:43:00,19.7,16.2,29.51,West,277,2.0,6.0,86,0.00,,---,0.00,VWS V13.01,2013-03-19 05:43:00,
2013-03-19 00:48:00,19.7,16.2,29.51,West,267,0.0,6.0,86,0.00,,---,0.00,VWS V13.01,2013-03-19 05:48:00,
2013-03-19 00:53:00,19.5,16.0,29.51,WNW,298,1.0,6.0,86,0.00,,---,0.00,VWS V13.01,2013-03-19 05:53:00,
2013-03-19 00:58:00,19.4,18.0,29.51,West,275,2.0,9.0,94,0.00,,---,0.00,VWS V13.01,2013-03-19 05:58:00,
2013-03-19 01:03:00,19.1,15.6,29.51,NW,313,2.0,3.0,86,0.00,,---,0.00,VWS V13.01,2013-03-19 06:03:00,
2013-03-19 01:08:00,18.9,15.1,29.51,NW,313,1.0,3.0,85,0.00,,---,0.00,VWS V13.01,2013-03-19 06:08:00,
2013-03-19 01:13:00,18.7,15.2,29.51,NW,313,1.0,3.0,86,0.00,,---,0.00,VWS V13.01,2013-03-19 06:13:00,
2013-03-19 01:18:00,18.6,15.1,29.51,West,262,1.0,3.0,86,0.00,,---,0.00,VWS V13.01,2013-03-19 06:18:00,
2013-03-19 01:23:00,18.6,15.1,29.51,WSW,242,1.0,5.0,86,0.00,,---,0.00,VWS V13.01,2013-03-19 06:23:00,
2013-03-19 01:28:00,18.5,15.0,29.51,West,268,1.0,7.0,86,0.00,,---,0.00,VWS V13.01,2013-03-19 06:28:00,
2013-03-19 01:33:00,18.3,14.8,29.51,West,270,1.0,2.0,86,0.00,,---,0.00,VWS V13.01,2013-03-19 06:33:00,
2013-03-19 01:38:00,18.2,14.7,29.51,North,351,1.0,3.0,86,0.00,,---,0.00,VWS V13.01,2013-03-19 06:38:00,
2013-03-19 01:43:00,18.1,14.6,29.51,WSW,248,0.0,3.0,86,0.00,,---,0.00,VWS V13.01,2013-03-19 06:43:00,
2013-03-19 01:48:00,18.0,14.5,29.51,WSW,253,4.0,6.0,86,0.00,,---,0.00,VWS V13.01,2013-03-19 06:48:00,
2013-03-19 01:53:00,17.9,14.4,29.51,WSW,254,0.0,6.0,86,0.00,,---,0.00,VWS V13.01,2013-03-19 06:53:00,
2013-03-19 01:58:00,17.8,14.3,29.51,West,261,3.0,6.0,86,0.00,,---,0.00,VWS V13.01,2013-03-19 06:58:00,
2013-03-19 02:03:00,17.7,14.2,29.52,SW,231,3.0,4.0,86,0.00,,---,0.00,VWS V13.01,2013-03-19 07:03:00,
2013-03-19 02:08:00,17.6,14.1,29.52,West,281,0.0,6.0,86,0.00,,---,0.00,VWS V13.01,2013-03-19 07:08:00,
2013-03-19 02:13:00,17.5,14.0,29.52,WNW,300,0.0,6.0,86,0.00,,---,0.00,VWS V13.01,2013-03-19 07:13:00,
2013-03-19 02:18:00,17.4,13.9,29.52,West,268,2.0,6.0,86,0.00,,---,0.00,VWS V13.01,2013-03-19 07:18:00,
2013-03-19 02:23:00,17.3,13.8,29.52,West,261,2.0,6.0,86,0.00,,---,0.00,VWS V13.01,2013-03-19 07:23:00,
2013-03-19 02:28:00,17.1,13.6,29.52,WSW,257,0.0,6.0,86,0.00,,---,0.00,VWS V13.01,2013-03-19 07:28:00,
2013-03-19 02:34:00,17.1,13.6,29.52,WNW,283,0.0,3.0,86,0.00,,---,0.00,VWS V13.01,2013-03-19 07:34:00,
2013-03-19 02:39:00,17.0,13.5,29.51,NNW,336,2.0,3.0,86,0.00,,---,0.00,VWS V13.01,2013-03-19 07:39:00,
2013-03-19 02:44:00,16.9,13.4,29.51,WSW,247,0.0,9.0,86,0.00,,---,0.00,VWS V13.01,2013-03-19 07:44:00,
2013-03-19 02:49:00,16.9,13.4,29.51,West,275,2.0,9.0,86,0.00,,---,0.00,VWS V13.01,2013-03-19 07:49:00,
2013-03-19 02:54:00,16.8,13.4,29.51,West,271,0.0,9.0,86,0.00,,---,0.00,VWS V13.01,2013-03-19 07:54:00,
2013-03-19 02:59:00,16.7,13.2,29.51,SW,235,0.0,9.0,86,0.00,,---,0.00,VWS V13.01,2013-03-19 07:59:00,
2013-03-19 03:04:00,16.7,13.2,29.51,WSW,254,1.0,4.0,86,0.00,,---,0.00,VWS V13.01,2013-03-19 08:04:00,
2013-03-19 03:09:00,16.6,13.1,29.51,West,264,3.0,4.0,86,0.00,,---,0.00,VWS V13.01,2013-03-19 08:09:00,
2013-03-19 03:14:00,16.6,13.1,29.51,WSW,254,2.0,4.0,86,0.00,,---,0.00,VWS V13.01,2013-03-19 08:14:00,
2013-03-19 03:19:00,16.6,13.1,29.51,West,271,1.0,5.0,86,0.00,,---,0.00,VWS V13.01,2013-03-19 08:19:00,
2013-03-19 03:24:00,16.6,13.1,29.51,WSW,249,0.0,5.0,86,0.00,,---,0.00,VWS V13.01,2013-03-19 08:24:00,
2013-03-19 03:29:00,16.6,13.1,29.51,West,264,0.0,6.0,86,0.00,,---,0.00,VWS V13.01,2013-03-19 08:29:00,
2013-03-19 03:34:00,16.6,13.1,29.51,NW,304,1.0,3.0,86,0.00,,---,0.00,VWS V13.01,2013-03-19 08:34:00,
2013-03-19 03:39:00,16.6,13.1,29.51,WSW,257,2.0,3.0,86,0.00,,---,0.00,VWS V13.01,2013-03-19 08:39:00,
2013-03-19 03:44:00,16.6,13.1,29.51,NW,306,0.0,5.0,86,0.00,,---,0.00,VWS V13.01,2013-03-19 08:44:00,
2013-03-19 03:49:00,16.6,13.1,29.51,West,260,3.0,6.0,86,0.00,,---,0.00,VWS V13.01,2013-03-19 08:49:00,
2013-03-19 03:54:00,16.5,13.1,29.51,West,276,2.0,6.0,86,0.00,,---,0.00,VWS V13.01,2013-03-19 08:54:00,
2013-03-19 03:59:00,16.5,13.1,29.51,WSW,247,3.0,6.0,86,0.00,,---,0.00,VWS V13.01,2013-03-19 08:59:00,
2013-03-19 04:04:00,16.5,13.1,29.51,WSW,258,5.0,5.0,86,0.00,,---,0.00,VWS V13.01,2013-03-19 09:04:00,
2013-03-19 04:09:00,16.4,12.9,29.50,NW,321,1.0,5.0,86,0.00,,---,0.00,VWS V13.01,2013-03-19 09:09:00,
2013-03-19 04:14:00,16.4,12.9,29.51,WSW,253,0.0,5.0,86,0.00,,---,0.00,VWS V13.01,2013-03-19 09:14:00,
2013-03-19 04:19:00,16.4,12.9,29.50,WSW,248,2.0,5.0,86,0.00,,---,0.00,VWS V13.01,2013-03-19 09:19:00,
2013-03-19 04:24:00,16.4,12.9,29.51,WNW,288,0.0,5.0,86,0.00,,---,0.00,VWS V13.01,2013-03-19 09:24:00,
2013-03-19 04:29:00,16.4,12.9,29.51,WNW,294,0.0,5.0,86,0.00,,---,0.00,VWS V13.01,2013-03-19 09:29:00,
2013-03-19 04:34:00,16.4,12.9,29.51,WNW,290,0.0,2.0,86,0.00,,---,0.00,VWS V13.01,2013-03-19 09:34:00,
2013-03-19 04:39:00,16.4,12.9,29.51,West,276,0.0,6.0,86,0.00,,---,0.00,VWS V13.01,2013-03-19 09:39:00,
2013-03-19 04:44:00,16.4,12.9,29.51,West,276,3.0,6.0,86,0.00,,---,0.00,VWS V13.01,2013-03-19 09:44:00,
2013-03-19 04:49:00,16.4,12.9,29.51,WNW,292,1.0,6.0,86,0.00,,---,0.00,VWS V13.01,2013-03-19 09:49:00,
2013-03-19 04:54:00,16.4,12.9,29.51,West,270,1.0,6.0,86,0.00,,---,0.00,VWS V13.01,2013-03-19 09:54:00,
2013-03-19 04:59:00,16.4,12.9,29.51,West,280,0.0,6.0,86,0.00,,---,0.00,VWS V13.01,2013-03-19 09:59:00,
2013-03-19 05:04:00,16.5,13.1,29.51,West,272,1.0,4.0,86,0.00,,---,0.00,VWS V13.01,2013-03-19 10:04:00,
2013-03-19 05:09:00,16.5,13.1,29.51,West,279,1.0,4.0,86,0.00,,---,0.00,VWS V13.01,2013-03-19 10:09:00,
2013-03-19 05:14:00,16.5,13.1,29.51,WSW,248,3.0,5.0,86,0.00,,---,0.00,VWS V13.01,2013-03-19 10:14:00,
2013-03-19 05:19:00,16.6,13.1,29.52,West,275,0.0,5.0,86,0.00,,---,0.00,VWS V13.01,2013-03-19 10:19:00,
2013-03-19 05:24:00,16.6,13.1,29.52,WNW,302,1.0,5.0,86,0.00,,---,0.00,VWS V13.01,2013-03-19 10:24:00,
2013-03-19 05:29:00,16.7,13.2,29.52,West,281,1.0,6.0,86,0.00,,---,0.00,VWS V13.01,2013-03-19 10:29:00,
2013-03-19 05:34:00,16.7,13.2,29.52,West,263,3.0,5.0,86,0.00,,---,0.00,VWS V13.01,2013-03-19 10:34:00,
2013-03-19 05:40:00,16.7,13.2,29.52,West,268,0.0,5.0,86,0.00,,---,0.00,VWS V13.01,2013-03-19 10:40:00,
2013-03-19 05:45:00,16.8,13.6,29.52,West,260,4.0,5.0,87,0.00,,---,0.00,VWS V13.01,2013-03-19 10:45:00,
2013-03-19 05:50:00,16.8,13.6,29.52,West,263,2.0,5.0,87,0.00,,---,0.00,VWS V13.01,2013-03-19 10:50:00,
2013-03-19 05:55:00,16.8,13.6,29.52,SW,225,0.0,5.0,87,0.00,,---,0.00,VWS V13.01,2013-03-19 10:55:00,
2013-03-19 06:00:00,16.8,13.6,29.53,WNW,296,1.0,5.0,87,0.00,,---,0.00,VWS V13.01,2013-03-19 11:00:00,
2013-03-19 06:05:00,16.8,13.6,29.53,WNW,303,0.0,2.0,87,0.00,,---,0.00,VWS V13.01,2013-03-19 11:05:00,
2013-03-19 06:10:00,16.8,13.6,29.53,West,277,1.0,3.0,87,0.00,,---,0.00,VWS V13.01,2013-03-19 11:10:00,
2013-03-19 06:15:00,16.8,13.6,29.53,NW,321,2.0,6.0,87,0.00,,---,0.00,VWS V13.01,2013-03-19 11:15:00,
2013-03-19 06:20:00,16.8,13.6,29.53,WNW,287,1.0,6.0,87,0.00,,---,0.00,VWS V13.01,2013-03-19 11:20:00,
2013-03-19 06:25:00,16.8,13.6,29.53,WNW,284,2.0,6.0,87,0.00,,---,0.00,VWS V13.01,2013-03-19 11:25:00,
2013-03-19 06:30:00,16.8,13.4,29.54,West,281,0.0,6.0,86,0.00,,---,0.00,VWS V13.01,2013-03-19 11:30:00,
2013-03-19 06:35:00,16.8,13.4,29.54,WSW,250,4.0,4.0,86,0.00,,---,0.00,VWS V13.01,2013-03-19 11:35:00,
2013-03-19 06:40:00,16.8,13.4,29.54,WNW,283,2.0,4.0,86,0.00,,---,0.00,VWS V13.01,2013-03-19 11:40:00,
2013-03-19 06:45:00,16.8,13.4,29.55,WNW,296,2.0,4.0,86,0.00,,---,0.00,VWS V13.01,2013-03-19 11:45:00,
2013-03-19 06:50:00,16.7,13.2,29.55,NW,309,1.0,5.0,86,0.00,,---,0.00,VWS V13.01,2013-03-19 11:50:00,
2013-03-19 06:55:00,16.7,13.2,29.55,NW,306,2.0,10.0,86,0.00,,---,0.00,VWS V13.01,2013-03-19 11:55:00,
2013-03-19 07:00:00,16.6,13.1,29.55,NW,314,3.0,10.0,86,0.00,,---,0.00,VWS V13.01,2013-03-19 12:00:00,
2013-03-19 07:05:00,16.5,13.1,29.56,WNW,282,3.0,3.0,86,0.00,,---,0.00,VWS V13.01,2013-03-19 12:05:00,
2013-03-19 07:10:00,16.4,12.9,29.56,WNW,297,2.0,4.0,86,0.00,,---,0.00,VWS V13.01,2013-03-19 12:10:00,
2013-03-19 07:15:00,16.4,12.9,29.56,WNW,290,3.0,4.0,86,0.00,,---,0.00,VWS V13.01,2013-03-19 12:15:00,
2013-03-19 07:20:00,16.3,12.9,29.57,NW,309,2.0,4.0,86,0.00,,---,0.00,VWS V13.01,2013-03-19 12:20:00,
2013-03-19 07:25:00,16.2,12.8,29.57,WNW,295,3.0,4.0,86,0.00,,---,0.00,VWS V13.01,2013-03-19 12:25:00,
2013-03-19 07:30:00,16.2,12.8,29.58,WNW,300,2.0,4.0,86,0.00,,---,0.00,VWS V13.01,2013-03-19 12:30:00,
2013-03-19 07:35:00,16.1,12.7,29.58,WNW,298,3.0,6.0,86,0.00,,---,0.00,VWS V13.01,2013-03-19 12:35:00,
2013-03-19 07:40:00,16.0,12.3,29.58,NW,309,2.0,6.0,85,0.00,,---,0.00,VWS V13.01,2013-03-19 12:40:00,
2013-03-19 07:45:00,15.9,12.2,29.58,NW,313,4.0,6.0,85,0.00,,---,0.00,VWS V13.01,2013-03-19 12:45:00,
2013-03-19 07:50:00,15.8,12.1,29.59,NW,311,2.0,6.0,85,0.00,,---,0.00,VWS V13.01,2013-03-19 12:50:00,
2013-03-19 07:55:00,15.7,12.0,29.59,WNW,296,3.0,6.0,85,0.00,,---,0.00,VWS V13.01,2013-03-19 12:55:00,
2013-03-19 08:00:00,15.7,12.0,29.59,WNW,292,2.0,6.0,85,0.00,,---,0.00,VWS V13.01,2013-03-19 13:00:00,
2013-03-19 08:05:00,15.7,12.0,29.59,NW,309,3.0,7.0,85,0.00,,---,0.00,VWS V13.01,2013-03-19 13:05:00,
2013-03-19 08:10:00,15.7,12.0,29.60,West,276,3.0,7.0,85,0.00,,---,0.00,VWS V13.01,2013-03-19 13:10:00,
2013-03-19 08:15:00,15.7,12.0,29.60,WNW,302,2.0,7.0,85,0.00,,---,0.00,VWS V13.01,2013-03-19 13:15:00,
2013-03-19 08:20:00,15.8,12.1,29.60,West,263,2.0,7.0,85,0.00,,---,0.00,VWS V13.01,2013-03-19 13:20:00,
2013-03-19 08:25:00,16.0,12.3,29.60,NW,315,3.0,7.0,85,0.00,,---,0.00,VWS V13.01,2013-03-19 13:25:00,
2013-03-19 08:30:00,16.0,12.3,29.60,NW,316,2.0,7.0,85,0.00,,---,0.00,VWS V13.01,2013-03-19 13:30:00,
2013-03-19 08:35:00,16.0,12.0,29.60,WNW,294,2.0,4.0,84,0.00,,---,0.00,VWS V13.01,2013-03-19 13:35:00,
2013-03-19 08:40:00,16.0,12.0,29.61,West,281,3.0,4.0,84,0.00,,---,0.00,VWS V13.01,2013-03-19 13:40:00,
2013-03-19 08:45:00,16.0,12.3,29.61,NW,304,3.0,10.0,85,0.00,,---,0.00,VWS V13.01,2013-03-19 13:45:00,
2013-03-19 08:50:00,16.2,12.5,29.61,West,279,3.0,10.0,85,0.00,,---,0.00,VWS V13.01,2013-03-19 13:50:00,
2013-03-19 08:55:00,16.3,12.6,29.61,WNW,287,2.0,10.0,85,0.00,,---,0.00,VWS V13.01,2013-03-19 13:55:00,
2013-03-19 09:01:00,16.5,12.8,29.61,WNW,302,4.0,10.0,85,0.00,,---,0.00,VWS V13.01,2013-03-19 14:01:00,
2013-03-19 09:06:00,16.5,12.5,29.61,NW,310,4.0,11.0,84,0.00,,---,0.00,VWS V13.01,2013-03-19 14:06:00,
2013-03-19 09:11:00,16.5,12.5,29.62,NW,304,3.0,11.0,84,0.00,,---,0.00,VWS V13.01,2013-03-19 14:11:00,
2013-03-19 09:16:00,16.5,12.5,29.62,NW,306,2.0,11.0,84,0.00,,---,0.00,VWS V13.01,2013-03-19 14:16:00,
2013-03-19 09:21:00,16.5,12.2,29.62,WNW,292,3.0,11.0,83,0.00,,---,0.00,VWS V13.01,2013-03-19 14:21:00,
2013-03-19 09:26:00,16.6,12.4,29.62,WNW,284,4.0,11.0,83,0.00,,---,0.00,VWS V13.01,2013-03-19 14:26:00,
2013-03-19 09:31:00,16.7,12.4,29.62,WNW,296,2.0,11.0,83,0.00,,---,0.00,VWS V13.01,2013-03-19 14:31:00,
2013-03-19 09:36:00,16.9,12.6,29.62,NW,317,6.0,6.0,83,0.00,,---,0.00,VWS V13.01,2013-03-19 14:36:00,
2013-03-19 09:42:00,17.1,12.8,29.63,NW,304,4.0,7.0,83,0.00,,---,0.00,VWS V13.01,2013-03-19 14:42:00,
2013-03-19 09:47:00,17.2,12.7,29.63,WNW,302,4.0,7.0,82,0.00,,---,0.00,VWS V13.01,2013-03-19 14:47:00,
2013-03-19 09:52:00,17.2,12.7,29.63,NW,311,5.0,9.0,82,0.00,,---,0.00,VWS V13.01,2013-03-19 14:52:00,
2013-03-19 09:57:00,17.1,12.6,29.63,WNW,282,2.0,9.0,82,0.00,,---,0.00,VWS V13.01,2013-03-19 14:57:00,
2013-03-19 10:02:00,17.1,12.6,29.64,NW,321,5.0,9.0,82,0.00,,---,0.00,VWS V13.01,2013-03-19 15:02:00,
2013-03-19 10:07:00,17.2,12.4,29.64,WNW,291,4.0,7.0,81,0.00,,---,0.00,VWS V13.01,2013-03-19 15:07:00,
2013-03-19 10:12:00,17.4,12.6,29.64,WNW,296,4.0,7.0,81,0.00,,---,0.00,VWS V13.01,2013-03-19 15:12:00,
2013-03-19 10:17:00,17.6,12.8,29.64,WNW,297,3.0,7.0,81,0.00,,---,0.00,VWS V13.01,2013-03-19 15:17:00,
2013-03-19 10:22:00,17.6,12.5,29.65,NW,316,5.0,9.0,80,0.00,,---,0.00,VWS V13.01,2013-03-19 15:22:00,
2013-03-19 10:27:00,17.7,12.6,29.65,WNW,300,3.0,9.0,80,0.00,,---,0.00,VWS V13.01,2013-03-19 15:27:00,
2013-03-19 10:32:00,17.9,12.8,29.65,WNW,296,5.0,9.0,80,0.00,,---,0.00,VWS V13.01,2013-03-19 15:32:00,
2013-03-19 10:37:00,17.9,12.8,29.65,NW,304,5.0,5.0,80,0.00,,---,0.00,VWS V13.01,2013-03-19 15:37:00,
2013-03-19 10:42:00,18.1,12.7,29.65,WNW,291,3.0,5.0,79,0.00,,---,0.00,VWS V13.01,2013-03-19 15:42:00,
2013-03-19 10:47:00,18.2,12.8,29.65,WNW,300,4.0,10.0,79,0.00,,---,0.00,VWS V13.01,2013-03-19 15:47:00,
2013-03-19 10:52:00,18.3,12.9,29.66,NW,310,4.0,10.0,79,0.00,,---,0.00,VWS V13.01,2013-03-19 15:52:00,
2013-03-19 10:57:00,18.4,12.7,29.66,NW,304,3.0,10.0,78,0.00,,---,0.00,VWS V13.01,2013-03-19 15:57:00,
2013-03-19 11:02:00,18.6,12.9,29.66,NW,306,6.0,10.0,78,0.00,,---,0.00,VWS V13.01,2013-03-19 16:02:00,
2013-03-19 11:07:00,18.7,12.7,29.66,NW,304,6.0,8.0,77,0.00,,---,0.00,VWS V13.01,2013-03-19 16:07:00,
2013-03-19 11:12:00,18.8,12.8,29.66,NW,310,3.0,8.0,77,0.00,,---,0.00,VWS V13.01,2013-03-19 16:12:00,
2013-03-19 11:17:00,18.7,13.0,29.67,WNW,298,6.0,10.0,78,0.00,,---,0.00,VWS V13.01,2013-03-19 16:17:00,
2013-03-19 11:22:00,18.7,13.0,29.67,WNW,298,4.0,10.0,78,0.00,,---,0.00,VWS V13.01,2013-03-19 16:22:00,
2013-03-19 11:27:00,18.9,13.2,29.68,WNW,303,5.0,10.0,78,0.00,,---,0.00,VWS V13.01,2013-03-19 16:27:00,
2013-03-19 11:32:00,19.2,13.5,29.67,NW,308,6.0,9.0,78,0.00,,---,0.00,VWS V13.01,2013-03-19 16:32:00,
2013-03-19 11:37:00,19.4,13.4,29.68,NW,304,6.0,9.0,77,0.00,,---,0.00,VWS V13.01,2013-03-19 16:37:00,
2013-03-19 11:42:00,19.7,13.4,29.68,NW,307,6.0,10.0,76,0.00,,---,0.00,VWS V13.01,2013-03-19 16:42:00,
2013-03-19 11:47:00,19.8,14.1,29.68,NW,317,7.0,12.0,78,0.00,,---,0.00,VWS V13.01,2013-03-19 16:47:00,
2013-03-19 11:52:00,20.0,14.0,29.69,NW,308,5.0,12.0,77,0.00,,---,0.00,VWS V13.01,2013-03-19 16:52:00,
2013-03-19 11:57:00,20.1,13.8,29.69,NW,305,6.0,12.0,76,0.00,,---,0.00,VWS V13.01,2013-03-19 16:57:00,
2013-03-19 12:02:00,20.0,13.7,29.69,NW,311,4.0,6.0,76,0.00,,---,0.00,VWS V13.01,2013-03-19 17:02:00,
2013-03-19 12:07:00,20.2,13.6,29.69,WNW,294,4.0,8.0,75,0.00,,---,0.00,VWS V13.01,2013-03-19 17:07:00,
2013-03-19 12:12:00,20.4,13.1,29.70,NW,309,5.0,9.0,73,0.00,,---,0.00,VWS V13.01,2013-03-19 17:12:00,
2013-03-19 12:17:00,20.6,13.3,29.70,NW,309,4.0,9.0,73,0.00,,---,0.00,VWS V13.01,2013-03-19 17:17:00,
2013-03-19 12:22:00,20.8,13.5,29.70,WNW,303,4.0,11.0,73,0.00,,---,0.00,VWS V13.01,2013-03-19 17:22:00,
2013-03-19 12:27:00,20.9,13.3,29.70,NW,306,6.0,11.0,72,0.00,,---,0.00,VWS V13.01,2013-03-19 17:27:00,
2013-03-19 12:33:00,21.0,13.1,29.71,NW,306,5.0,5.0,71,0.00,,---,0.00,VWS V13.01,2013-03-19 17:33:00,
2013-03-19 12:38:00,21.2,13.6,29.71,WNW,302,4.0,6.0,72,0.00,,---,0.00,VWS V13.01,2013-03-19 17:38:00,
2013-03-19 12:43:00,21.2,13.0,29.71,NW,319,5.0,9.0,70,0.00,,---,0.00,VWS V13.01,2013-03-19 17:43:00,
2013-03-19 12:48:00,21.4,13.5,29.72,WNW,296,2.0,9.0,71,0.00,,---,0.00,VWS V13.01,2013-03-19 17:48:00,
2013-03-19 12:53:00,21.6,13.3,29.72,NW,325,8.0,9.0,70,0.00,,---,0.00,VWS V13.01,2013-03-19 17:53:00,
2013-03-19 12:58:00,21.5,13.2,29.72,WNW,298,4.0,9.0,70,0.00,,---,0.00,VWS V13.01,2013-03-19 17:58:00,
2013-03-19 13:03:00,21.5,13.2,29.73,NW,309,5.0,7.0,70,0.00,,---,0.00,VWS V13.01,2013-03-19 18:03:00,
2013-03-19 13:08:00,21.8,13.5,29.73,WNW,293,3.0,7.0,70,0.00,,---,0.00,VWS V13.01,2013-03-19 18:08:00,
2013-03-19 13:13:00,21.9,14.3,29.73,NW,315,7.0,12.0,72,0.00,,---,0.00,VWS V13.01,2013-03-19 18:13:00,
2013-03-19 13:18:00,21.9,14.0,29.73,West,276,4.0,12.0,71,0.00,,---,0.00,VWS V13.01,2013-03-19 18:18:00,
2013-03-19 13:23:00,22.0,13.7,29.73,WNW,302,5.0,12.0,70,0.00,,---,0.00,VWS V13.01,2013-03-19 18:23:00,
2013-03-19 13:28:00,22.0,13.1,29.73,WNW,300,5.0,12.0,68,0.00,,---,0.00,VWS V13.01,2013-03-19 18:28:00,
2013-03-19 13:33:00,22.1,13.5,29.74,WNW,288,3.0,5.0,69,0.00,,---,0.00,VWS V13.01,2013-03-19 18:33:00,
2013-03-19 13:38:00,22.2,13.3,29.74,NW,306,5.0,9.0,68,0.00,,---,0.00,VWS V13.01,2013-03-19 18:38:00,
2013-03-19 13:43:00,22.2,13.3,29.74,West,280,3.0,9.0,68,0.00,,---,0.00,VWS V13.01,2013-03-19 18:43:00,
2013-03-19 13:48:00,22.0,13.4,29.74,NW,308,5.0,10.0,69,0.00,,---,0.00,VWS V13.01,2013-03-19 18:48:00,
2013-03-19 13:53:00,21.9,13.3,29.74,NW,313,6.0,10.0,69,0.00,,---,0.00,VWS V13.01,2013-03-19 18:53:00,
2013-03-19 13:58:00,21.8,12.9,29.75,WNW,294,3.0,10.0,68,0.00,,---,0.00,VWS V13.01,2013-03-19 18:58:00,
2013-03-19 14:03:00,21.7,13.1,29.75,West,281,5.0,6.0,69,0.00,,---,0.00,VWS V13.01,2013-03-19 19:03:00,
2013-03-19 14:08:00,21.7,13.1,29.75,NW,311,6.0,8.0,69,0.00,,---,0.00,VWS V13.01,2013-03-19 19:08:00,
2013-03-19 14:13:00,21.6,13.3,29.75,WNW,301,5.0,9.0,70,0.00,,---,0.00,VWS V13.01,2013-03-19 19:13:00,
2013-03-19 14:18:00,21.5,13.2,29.76,WNW,290,4.0,9.0,70,0.00,,---,0.00,VWS V13.01,2013-03-19 19:18:00,
2013-03-19 14:23:00,21.5,13.6,29.75,WNW,292,5.0,9.0,71,0.00,,---,0.00,VWS V13.01,2013-03-19 19:23:00,
2013-03-19 14:28:00,21.5,13.6,29.76,WNW,299,4.0,9.0,71,0.00,,---,0.00,VWS V13.01,2013-03-19 19:28:00,
2013-03-19 14:33:00,21.5,13.6,29.76,WNW,291,2.0,4.0,71,0.00,,---,0.00,VWS V13.01,2013-03-19 19:33:00,
2013-03-19 14:38:00,21.4,13.8,29.76,NW,310,4.0,11.0,72,0.00,,---,0.00,VWS V13.01,2013-03-19 19:38:00,
2013-03-19 14:43:00,21.4,13.8,29.76,NW,313,5.0,11.0,72,0.00,,---,0.00,VWS V13.01,2013-03-19 19:43:00,
2013-03-19 14:48:00,21.4,13.8,29.77,NW,306,3.0,11.0,72,0.00,,---,0.00,VWS V13.01,2013-03-19 19:48:00,
2013-03-19 14:53:00,21.5,13.6,29.77,NW,309,7.0,11.0,71,0.00,,---,0.00,VWS V13.01,2013-03-19 19:53:00,
2013-03-19 14:58:00,21.5,13.2,29.77,WNW,295,4.0,11.0,70,0.00,,---,0.00,VWS V13.01,2013-03-19 19:58:00,
2013-03-19 15:03:00,21.8,13.5,29.77,NW,306,7.0,7.0,70,0.00,,---,0.00,VWS V13.01,2013-03-19 20:03:00,
2013-03-19 15:08:00,22.2,14.2,29.77,WNW,288,4.0,7.0,71,0.00,,---,0.00,VWS V13.01,2013-03-19 20:08:00,
2013-03-19 15:13:00,22.5,14.5,29.78,NW,305,3.0,7.0,71,0.00,,---,0.00,VWS V13.01,2013-03-19 20:13:00,
2013-03-19 15:18:00,22.4,14.1,29.78,NW,311,5.0,7.0,70,0.00,,---,0.00,VWS V13.01,2013-03-19 20:18:00,
2013-03-19 15:23:00,22.6,14.6,29.78,WNW,293,3.0,7.0,71,0.00,,---,0.00,VWS V13.01,2013-03-19 20:23:00,
2013-03-19 15:28:00,22.6,14.6,29.78,NW,315,3.0,7.0,71,0.00,,---,0.00,VWS V13.01,2013-03-19 20:28:00,
2013-03-19 15:33:00,22.4,14.4,29.78,WNW,295,5.0,8.0,71,0.00,,---,0.00,VWS V13.01,2013-03-19 20:33:00,
2013-03-19 15:38:00,22.2,13.9,29.79,NW,321,4.0,8.0,70,0.00,,---,0.00,VWS V13.01,2013-03-19 20:38:00,
2013-03-19 15:44:00,22.1,13.8,29.79,West,279,3.0,8.0,70,0.00,,---,0.00,VWS V13.01,2013-03-19 20:44:00,
2013-03-19 15:49:00,22.0,14.1,29.79,NW,311,6.0,8.0,71,0.00,,---,0.00,VWS V13.01,2013-03-19 20:49:00,
2013-03-19 15:54:00,21.8,14.2,29.80,NW,307,4.0,8.0,72,0.00,,---,0.00,VWS V13.01,2013-03-19 20:54:00,
2013-03-19 15:59:00,21.6,13.7,29.80,NW,319,7.0,9.0,71,0.00,,---,0.00,VWS V13.01,2013-03-19 20:59:00,
2013-03-19 16:04:00,21.5,13.6,29.80,WNW,294,6.0,7.0,71,0.00,,---,0.00,VWS V13.01,2013-03-19 21:04:00,
2013-03-19 16:09:00,21.6,13.7,29.80,NW,307,6.0,7.0,71,0.00,,---,0.00,VWS V13.01,2013-03-19 21:09:00,
2013-03-19 16:14:00,21.6,13.3,29.80,NW,307,5.0,9.0,70,0.00,,---,0.00,VWS V13.01,2013-03-19 21:14:00,
2013-03-19 16:19:00,21.7,13.8,29.81,NW,305,6.0,9.0,71,0.00,,---,0.00,VWS V13.01,2013-03-19 21:19:00,
2013-03-19 16:24:00,21.7,13.4,29.81,WNW,300,4.0,9.0,70,0.00,,---,0.00,VWS V13.01,2013-03-19 21:24:00,
2013-03-19 16:29:00,21.9,13.3,29.81,NW,308,6.0,9.0,69,0.00,,---,0.00,VWS V13.01,2013-03-19 21:29:00,
2013-03-19 16:34:00,22.0,13.4,29.82,North,349,6.0,7.0,69,0.00,,---,0.00,VWS V13.01,2013-03-19 21:34:00,
2013-03-19 16:39:00,22.0,12.7,29.82,NW,323,6.0,10.0,67,0.00,,---,0.00,VWS V13.01,2013-03-19 21:39:00,
2013-03-19 16:44:00,22.0,12.4,29.82,NW,323,4.0,10.0,66,0.00,,---,0.00,VWS V13.01,2013-03-19 21:44:00,
2013-03-19 16:49:00,22.0,12.4,29.83,WNW,289,6.0,12.0,66,0.00,,---,0.00,VWS V13.01,2013-03-19 21:49:00,
2013-03-19 16:54:00,22.0,12.4,29.83,NW,322,6.0,12.0,66,0.00,,---,0.00,VWS V13.01,2013-03-19 21:54:00,
2013-03-19 16:59:00,22.1,12.1,29.83,NW,321,3.0,12.0,65,0.00,,---,0.00,VWS V13.01,2013-03-19 21:59:00,
2013-03-19 17:04:00,22.2,12.9,29.83,NW,313,5.0,5.0,67,0.00,,---,0.00,VWS V13.01,2013-03-19 22:04:00,
2013-03-19 17:09:00,22.3,14.7,29.84,NW,319,3.0,6.0,72,0.00,,---,0.00,VWS V13.01,2013-03-19 22:09:00,
2013-03-19 17:14:00,22.3,12.7,29.84,NW,304,5.0,11.0,66,0.00,,---,0.00,VWS V13.01,2013-03-19 22:14:00,
2013-03-19 17:19:00,22.2,12.6,29.84,WNW,294,4.0,11.0,66,0.00,,---,0.00,VWS V13.01,2013-03-19 22:19:00,
2013-03-19 17:24:00,22.2,12.6,29.84,NW,311,5.0,11.0,66,0.00,,---,0.00,VWS V13.01,2013-03-19 22:24:00,
2013-03-19 17:29:00,22.1,12.1,29.84,WNW,300,4.0,11.0,65,0.00,,---,0.00,VWS V13.01,2013-03-19 22:29:00,
2013-03-19 17:34:00,22.2,12.6,29.85,WNW,301,3.0,6.0,66,0.00,,---,0.00,VWS V13.01,2013-03-19 22:34:00,
2013-03-19 17:39:00,22.1,12.1,29.85,NW,317,5.0,8.0,65,0.00,,---,0.00,VWS V13.01,2013-03-19 22:39:00,
2013-03-19 17:44:00,22.0,12.1,29.85,NW,306,5.0,8.0,65,0.00,,---,0.00,VWS V13.01,2013-03-19 22:44:00,
2013-03-19 17:49:00,22.0,12.1,29.85,WNW,292,4.0,10.0,65,0.00,,---,0.00,VWS V13.01,2013-03-19 22:49:00,
2013-03-19 17:54:00,22.0,12.4,29.85,NW,309,5.0,10.0,66,0.00,,---,0.00,VWS V13.01,2013-03-19 22:54:00,
2013-03-19 17:59:00,22.0,12.4,29.85,NW,304,4.0,10.0,66,0.00,,---,0.00,VWS V13.01,2013-03-19 22:59:00,
2013-03-19 18:04:00,22.1,12.1,29.86,NW,315,5.0,6.0,65,0.00,,---,0.00,VWS V13.01,2013-03-19 23:04:00,
2013-03-19 18:09:00,22.2,11.9,29.86,WNW,300,5.0,6.0,64,0.00,,---,0.00,VWS V13.01,2013-03-19 23:09:00,
2013-03-19 18:14:00,22.1,11.8,29.86,NW,304,6.0,9.0,64,0.00,,---,0.00,VWS V13.01,2013-03-19 23:14:00,
2013-03-19 18:19:00,22.0,11.7,29.86,WNW,301,6.0,10.0,64,0.00,,---,0.00,VWS V13.01,2013-03-19 23:19:00,
2013-03-19 18:24:00,21.9,11.6,29.86,WNW,303,4.0,10.0,64,0.00,,---,0.00,VWS V13.01,2013-03-19 23:24:00,
2013-03-19 18:29:00,21.8,11.9,29.86,WNW,299,4.0,10.0,65,0.00,,---,0.00,VWS V13.01,2013-03-19 23:29:00,
2013-03-19 18:34:00,21.6,11.3,29.87,NW,312,4.0,6.0,64,0.00,,---,0.00,VWS V13.01,2013-03-19 23:34:00,
2013-03-19 18:39:00,21.3,11.0,29.87,WNW,297,5.0,12.0,64,0.00,,---,0.00,VWS V13.01,2013-03-19 23:39:00,
2013-03-19 18:44:00,21.0,11.1,29.87,NW,319,9.0,13.0,65,0.00,,---,0.00,VWS V13.01,2013-03-19 23:44:00,
2013-03-19 18:49:00,20.8,11.2,29.87,NW,309,3.0,13.0,66,0.00,,---,0.00,VWS V13.01,2013-03-19 23:49:00,
2013-03-19 18:54:00,20.6,10.7,29.88,WNW,302,2.0,13.0,65,0.00,,---,0.00,VWS V13.01,2013-03-19 23:54:00,
2013-03-19 18:59:00,20.4,10.9,29.88,WNW,302,3.0,13.0,66,0.00,,---,0.00,VWS V13.01,2013-03-19 23:59:00,
2013-03-19 19:04:00,20.1,10.6,29.88,NW,313,4.0,5.0,66,0.00,,---,0.00,VWS V13.01,2013-03-20 00:04:00,
2013-03-19 19:09:00,20.0,10.8,29.88,NW,304,2.0,6.0,67,0.00,,---,0.00,VWS V13.01,2013-03-20 00:09:00,
2013-03-19 19:15:00,19.8,10.6,29.88,WNW,301,3.0,6.0,67,0.00,,---,0.00,VWS V13.01,2013-03-20 00:15:00,
2013-03-19 19:20:00,19.7,10.5,29.89,NW,313,3.0,6.0,67,0.00,,---,0.00,VWS V13.01,2013-03-20 00:20:00,
2013-03-19 19:25:00,19.7,10.5,29.89,WNW,302,2.0,6.0,67,0.00,,---,0.00,VWS V13.01,2013-03-20 00:25:00,
2013-03-19 19:30:00,19.7,10.5,29.89,WNW,302,3.0,6.0,67,0.00,,---,0.00,VWS V13.01,2013-03-20 00:30:00,
2013-03-19 19:35:00,19.7,10.5,29.89,NW,304,4.0,5.0,67,0.00,,---,0.00,VWS V13.01,2013-03-20 00:35:00,
2013-03-19 19:40:00,19.4,10.2,29.89,NW,319,4.0,5.0,67,0.00,,---,0.00,VWS V13.01,2013-03-20 00:40:00,
2013-03-19 19:45:00,19.3,10.1,29.89,NW,308,10.0,11.0,67,0.00,,---,0.00,VWS V13.01,2013-03-20 00:45:00,
2013-03-19 19:50:00,19.3,10.5,29.89,WNW,296,6.0,11.0,68,0.00,,---,0.00,VWS V13.01,2013-03-20 00:50:00,
2013-03-19 19:55:00,19.3,10.5,29.90,NW,307,2.0,11.0,68,0.00,,---,0.00,VWS V13.01,2013-03-20 00:55:00,
2013-03-19 20:00:00,19.1,10.3,29.90,NW,314,8.0,11.0,68,0.00,,---,0.00,VWS V13.01,2013-03-20 01:00:00,
2013-03-19 20:05:00,19.0,10.5,29.90,NW,306,6.0,6.0,69,0.00,,---,0.00,VWS V13.01,2013-03-20 01:05:00,
2013-03-19 20:10:00,18.9,10.8,29.90,NW,306,4.0,7.0,70,0.00,,---,0.00,VWS V13.01,2013-03-20 01:10:00,
2013-03-19 20:15:00,18.8,11.0,29.90,WNW,296,4.0,7.0,71,0.00,,---,0.00,VWS V13.01,2013-03-20 01:15:00,
2013-03-19 20:20:00,18.7,11.2,29.90,WNW,295,4.0,7.0,72,0.00,,---,0.00,VWS V13.01,2013-03-20 01:20:00,
2013-03-19 20:25:00,18.5,11.3,29.90,WNW,292,2.0,7.0,73,0.00,,---,0.00,VWS V13.01,2013-03-20 01:25:00,
2013-03-19 20:30:00,18.4,11.8,29.90,WNW,302,4.0,7.0,75,0.00,,---,0.00,VWS V13.01,2013-03-20 01:30:00,
2013-03-19 20:35:00,18.2,11.9,29.90,NW,306,4.0,5.0,76,0.00,,---,0.00,VWS V13.01,2013-03-20 01:35:00,
2013-03-19 20:40:00,18.1,12.1,29.90,NW,304,3.0,5.0,77,0.00,,---,0.00,VWS V13.01,2013-03-20 01:40:00,
2013-03-19 20:45:00,18.0,12.0,29.91,WNW,293,2.0,5.0,77,0.00,,---,0.00,VWS V13.01,2013-03-20 01:45:00,
2013-03-19 20:50:00,17.9,11.9,29.91,West,260,2.0,7.0,77,0.00,,---,0.00,VWS V13.01,2013-03-20 01:50:00,
2013-03-19 20:55:00,17.9,12.2,29.91,NW,308,3.0,7.0,78,0.00,,---,0.00,VWS V13.01,2013-03-20 01:55:00,
2013-03-19 21:00:00,17.8,12.4,29.91,NW,304,3.0,7.0,79,0.00,,---,0.00,VWS V13.01,2013-03-20 02:00:00,
2013-03-19 21:05:00,17.7,12.6,29.91,WNW,303,3.0,3.0,80,0.00,,---,0.00,VWS V13.01,2013-03-20 02:05:00,
2013-03-19 21:10:00,17.7,12.6,29.92,NW,313,0.0,4.0,80,0.00,,---,0.00,VWS V13.01,2013-03-20 02:10:00,
2013-03-19 21:15:00,17.7,12.9,29.92,WNW,286,1.0,7.0,81,0.00,,---,0.00,VWS V13.01,2013-03-20 02:15:00,
2013-03-19 21:20:00,17.7,12.9,29.92,WNW,297,3.0,7.0,81,0.00,,---,0.00,VWS V13.01,2013-03-20 02:20:00,
2013-03-19 21:25:00,17.6,13.1,29.92,NW,319,1.0,7.0,82,0.00,,---,0.00,VWS V13.01,2013-03-20 02:25:00,
2013-03-19 21:30:00,17.6,13.1,29.92,WNW,298,2.0,7.0,82,0.00,,---,0.00,VWS V13.01,2013-03-20 02:30:00,
2013-03-19 21:35:00,17.6,13.1,29.92,WNW,300,0.0,4.0,82,0.00,,---,0.00,VWS V13.01,2013-03-20 02:35:00,
2013-03-19 21:40:00,17.6,13.3,29.92,West,275,3.0,4.0,83,0.00,,---,0.00,VWS V13.01,2013-03-20 02:40:00,
2013-03-19 21:45:00,17.5,13.2,29.92,West,261,1.0,6.0,83,0.00,,---,0.00,VWS V13.01,2013-03-20 02:45:00,
2013-03-19 21:50:00,17.5,13.2,29.92,West,264,1.0,6.0,83,0.00,,---,0.00,VWS V13.01,2013-03-20 02:50:00,
2013-03-19 21:55:00,17.4,13.1,29.92,West,276,2.0,6.0,83,0.00,,---,0.00,VWS V13.01,2013-03-20 02:55:00,
2013-03-19 22:00:00,17.3,12.8,29.92,WNW,303,3.0,6.0,82,0.00,,---,0.00,VWS V13.01,2013-03-20 03:00:00,
2013-03-19 22:05:00,17.2,12.7,29.92,WSW,254,2.0,3.0,82,0.00,,---,0.00,VWS V13.01,2013-03-20 03:05:00,
2013-03-19 22:10:00,17.1,12.6,29.92,NW,307,2.0,4.0,82,0.00,,---,0.00,VWS V13.01,2013-03-20 03:10:00,
2013-03-19 22:15:00,17.0,12.7,29.92,WNW,298,2.0,4.0,83,0.00,,---,0.00,VWS V13.01,2013-03-20 03:15:00,
2013-03-19 22:20:00,17.0,12.7,29.92,WNW,302,2.0,4.0,83,0.00,,---,0.00,VWS V13.01,2013-03-20 03:20:00,
2013-03-19 22:25:00,17.0,12.7,29.92,NW,304,1.0,4.0,83,0.00,,---,0.00,VWS V13.01,2013-03-20 03:25:00,
2013-03-19 22:30:00,17.0,12.7,29.92,WNW,303,2.0,4.0,83,0.00,,---,0.00,VWS V13.01,2013-03-20 03:30:00,
2013-03-19 22:35:00,17.0,13.0,29.92,NW,311,0.0,3.0,84,0.00,,---,0.00,VWS V13.01,2013-03-20 03:35:00,
2013-03-19 22:40:00,17.0,13.0,29.92,NW,309,3.0,4.0,84,0.00,,---,0.00,VWS V13.01,2013-03-20 03:40:00,
2013-03-19 22:46:00,16.9,12.9,29.92,NW,309,2.0,4.0,84,0.00,,---,0.00,VWS V13.01,2013-03-20 03:46:00,
2013-03-19 22:51:00,16.9,12.9,29.92,WNW,296,2.0,4.0,84,0.00,,---,0.00,VWS V13.01,2013-03-20 03:51:00,
2013-03-19 22:56:00,16.9,12.9,29.92,NW,313,6.0,6.0,84,0.00,,---,0.00,VWS V13.01,2013-03-20 03:56:00,
2013-03-19 23:00:00,16.8,12.5,29.92,NW,317,5.0,10.0,83,0.00,,---,0.00,VWS V13.01,2013-03-20 04:00:00,
2013-03-19 23:06:00,16.7,11.6,29.92,WNW,302,3.0,5.0,80,0.00,,---,0.00,VWS V13.01,2013-03-20 04:06:00,
2013-03-19 23:11:00,16.6,11.2,29.92,NNW,336,6.0,9.0,79,0.00,,---,0.00,VWS V13.01,2013-03-20 04:11:00,
2013-03-19 23:16:00,16.6,10.9,29.92,NW,311,6.0,9.0,78,0.00,,---,0.00,VWS V13.01,2013-03-20 04:16:00,
2013-03-19 23:21:00,16.6,10.9,29.92,NNW,329,4.0,9.0,78,0.00,,---,0.00,VWS V13.01,2013-03-20 04:21:00,
2013-03-19 23:26:00,16.6,11.2,29.92,NW,320,2.0,9.0,79,0.00,,---,0.00,VWS V13.01,2013-03-20 04:26:00,
2013-03-19 23:31:00,16.6,11.8,29.92,NW,321,2.0,9.0,81,0.00,,---,0.00,VWS V13.01,2013-03-20 04:31:00,
2013-03-19 23:36:00,16.4,11.9,29.92,NW,320,3.0,3.0,82,0.00,,---,0.00,VWS V13.01,2013-03-20 04:36:00,
2013-03-19 23:41:00,16.4,11.9,29.92,NW,320,2.0,3.0,82,0.00,,---,0.00,VWS V13.01,2013-03-20 04:41:00,
2013-03-19 23:46:00,16.2,12.0,29.92,NW,322,3.0,4.0,83,0.00,,---,0.00,VWS V13.01,2013-03-20 04:46:00,
2013-03-19 23:51:00,16.1,11.6,29.92,NW,310,5.0,7.0,82,0.00,,---,0.00,VWS V13.01,2013-03-20 04:51:00,
2013-03-19 23:57:00,16.0,11.2,29.92,NW,320,3.0,7.0,81,0.00,,---,0.00,VWS V13.01,2013-03-20 04:57:00,